CAPE
0 0 0 0 0 0 0 0 0 0 0 0 0 0 0 0 0 0 0 0 0 0 0 0 0 0 0 515 2074 2360 2398 2464 2300 2195 2101 2072 1963 1806 1907 2115 2243 2470 2693 2727 2658 2525 2386 2198 2160 2003 1643 1511 1609 1702 1623 1602 1658 1740 2031 2330 2349 2294 2130 2012 1756 1588 1532 1463 1451 1341 1217 880 799 743 787 800 830 842 820 718 656 583 678 636 601 741
0 0 0 0 0 0 0 0 0 0 0 0 0 0 0 0 0 0 0 0 0 0 0 0 0 0 0 344 1998 2149 2231 2424 2239 2102 2023 1966 1903 1826 1932 2039 2142 2265 2638 2800 2707 2580 2389 2158 2069 1814 1601 1591 1617 1694 1703 1651 1618 1639 1811 2030 2163 2133 2008 1798 1542 1467 1387 1378 1303 1193 1067 770 658 755 786 779 651 542 592 612 626 683 624 578 579 642
0 0 0 0 0 0 0 0 0 0 0 0 0 0 0 0 0 0 0 0 0 0 0 0 0 0 0 711 1886 2006 1983 2124 2127 2008 1890 1831 1818 1817 1855 1897 1877 2174 2697 2863 2721 2473 2300 2245 2085 1680 1546 1514 1635 1808 1760 1688 1563 1503 1712 1860 2024 2020 1852 1676 1305 1195 1245 1376 1193 1020 784 710 690 767 752 712 677 643 578 470 414 450 463 579 608 414
0 0 0 0 0 0 0 0 0 0 0 0 0 0 0 0 0 0 0 0 0 0 0 0 0 0 0 729 1673 1868 1809 1826 2004 2042 2016 1806 1740 1745 1756 1770 1769 2061 2662 2866 2584 2214 1999 1896 1756 1608 1371 1333 1557 1682 1682 1682 1448 1258 1523 1742 1885 1875 1713 1501 1052 1024 1205 1268 1074 852 720 649 640 686 711 715 661 430 26 0 0 15 203 231 554 672
0 0 0 0 0 0 0 0 0 0 0 0 0 0 0 0 0 0 0 0 0 0 0 0 0 0 0 792 1465 1721 1828 1718 1674 1927 1974 1923 1618 1672 1608 1623 1716 2020 2614 2785 2364 1867 1796 1736 1518 1435 1266 1236 1309 1390 1569 1711 1545 1114 1314 1499 1554 1576 1514 1264 902 1080 1086 988 873 755 677 570 454 542 554 581 210 0 0 0 0 0 0 0 574 688
0 0 0 0 0 0 0 0 0 0 0 0 0 0 0 0 0 0 0 0 0 0 0 0 0 0 0 0 824 1356 1752 1794 1604 1628 1804 1800 1501 1308 1338 1488 1676 2048 2464 2701 2207 1636 1807 1753 1446 1252 1190 1303 1356 1403 1470 1651 1619 1213 1229 1224 1197 1308 1235 952 985 973 768 688 648 706 606 571 432 246 8 0 0 0 0 0 0 0 0 0 217 517
0 0 0 0 0 0 0 0 0 0 0 0 0 0 0 0 0 0 0 0 0 0 0 0 0 0 0 0 0 525 1240 1620 1469 1436 1432 1504 1389 1359 1413 1494 1746 1985 2318 2338 1937 1566 1822 1713 1441 1288 1327 1353 1367 1440 1480 1520 1592 1366 1161 1062 1133 1117 920 876 888 721 539 547 585 609 578 532 376 11 0 0 0 0 0 0 0 0 0 0 0 45
0 0 0 0 0 0 0 0 0 0 0 0 0 0 0 0 0 0 0 0 0 0 0 0 0 0 0 0 0 0 40 779 1175 1311 1206 1139 1146 1342 1481 1488 1684 1944 2150 2090 1838 1611 1730 1746 1486 1370 1312 1332 1349 1333 1314 1324 1335 1321 1129 987 936 779 729 647 491 315 0 409 509 534 541 476 14 0 0 0 0 0 0 0 0 0 0 0 0 0
0 0 0 0 0 0 0 0 0 0 0 0 0 0 0 0 0 0 0 0 0 0 0 0 0 0 0 0 0 0 0 0 93 594 930 1043 1049 1160 1386 1450 1479 1734 1916 1912 1850 1717 1544 1649 1592 1355 1234 1266 1173 1082 1066 1076 1137 1156 1025 867 718 614 553 420 0 0 0 0 326 417 444 117 0 0 0 0 0 0 0 0 0 0 0 0 0 0
0 0 0 0 0 0 0 0 0 0 0 0 0 0 0 0 0 0 0 0 0 0 0 0 0 0 0 0 0 0 0 0 0 0 65 453 810 957 1185 1408 1394 1474 1826 1900 1885 1775 1512 1283 1314 1208 1210 1206 1072 1060 1072 1037 1078 1051 888 843 644 582 465 228 0 0 0 0 0 0 0 0 0 0 0 0 0 0 0 0 0 0 0 0 0 0
0 0 0 0 0 0 0 0 0 0 0 0 0 0 0 0 0 0 0 0 0 0 0 0 0 0 0 0 0 0 0 0 0 0 0 44 487 724 932 1238 1327 1236 1371 1746 1795 1735 1574 1151 1146 1232 1305 1246 1093 1085 1109 1048 992 887 826 807 550 459 346 0 0 0 0 0 0 0 0 0 0 0 0 0 0 0 0 0 0 0 0 0 0 0
0 0 0 0 0 0 0 0 0 0 0 0 0 0 0 0 0 0 0 0 0 0 0 0 0 0 0 0 0 0 0 0 0 0 0 2 16 548 735 952 1162 1204 1134 1264 1548 1557 1401 1175 1166 1279 1332 1260 1114 1088 1151 1140 1071 1041 863 790 462 390 311 0 0 0 0 0 0 0 0 5 10 4 0 0 0 0 0 0 0 0 0 0 0 0
0 0 0 0 0 0 0 0 0 0 0 0 0 0 0 0 0 0 0 0 0 0 0 0 0 0 0 0 0 0 0 0 0 0 1 1 0 0 598 763 892 1054 1070 1116 1232 1316 1236 1127 1161 1297 1364 1347 1222 1162 1164 1221 1198 1153 1098 817 457 407 369 22 0 0 62 76 89 112 107 65 14 1 0 0 0 0 0 0 0 0 0 0 0 0
0 0 0 0 0 0 0 0 0 0 0 0 0 0 0 0 0 0 0 0 0 0 0 0 0 0 0 0 0 0 0 0 0 0 0 0 0 0 34 583 793 834 981 1030 1014 1046 1066 1054 1176 1350 1407 1400 1359 1264 1239 1260 1254 1206 1186 1139 830 462 403 412 201 222 240 53 47 44 25 13 0 0 0 0 0 0 0 0 0 0 0 0 0 0
0 0 0 0 0 0 0 0 0 0 0 0 0 0 0 0 0 0 0 0 0 0 0 0 0 0 0 0 0 0 0 0 0 0 0 0 0 0 10 300 635 822 985 1039 982 992 1037 1012 1072 1191 1390 1427 1331 1322 1309 1319 1274 1216 1201 1163 1061 841 588 488 430 355 382 264 244 117 67 69 263 0 0 0 1 0 0 0 0 0 0 0 0 0
0 0 0 0 0 0 0 0 0 0 0 0 0 0 0 0 0 0 0 0 0 0 0 0 0 0 0 0 0 0 0 0 0 0 0 1 1 75 241 414 601 792 933 992 1028 1003 1033 942 954 815 990 1370 1363 1352 1418 1409 1383 1384 1334 1164 1022 905 811 740 707 555 265 246 70 261 255 50 36 11 0 0 0 0 0 0 0 0 0 0 0 0
0 0 0 0 0 0 0 0 0 0 0 0 0 0 0 0 0 0 0 0 0 0 0 0 0 0 0 0 0 0 37 290 294 258 261 242 236 284 378 524 651 784 892 957 1015 1038 924 840 91 195 927 1133 1240 1364 1399 1335 1391 1370 1352 1234 1040 924 924 896 810 657 536 264 25 257 2 18 6 0 0 0 0 0 0 0 0 0 0 0 0 0
0 0 0 0 0 0 0 0 0 0 0 0 0 0 0 0 0 0 0 0 0 0 0 0 0 0 0 0 0 0 0 229 377 434 369 415 414 414 496 592 650 727 798 828 891 607 196 75 65 96 646 1141 1270 1279 1264 1237 1236 1325 1306 1364 1274 1068 1033 891 568 343 38 193 121 64 95 34 16 14 7 0 0 0 0 0 0 0 0 0 0 0
0 0 0 0 0 0 0 0 0 0 0 0 0 0 0 0 0 0 0 0 0 0 0 0 0 0 0 0 0 0 0 295 367 514 546 528 608 575 597 622 669 667 658 557 362 53 140 414 293 366 556 929 1072 1090 1002 942 1090 1203 1275 1316 1355 1424 1366 1323 653 351 281 232 118 63 90 0 13 13 2 0 4 0 0 0 0 0 0 0 0 0
0 0 0 0 0 0 0 0 0 0 0 0 0 0 0 0 0 0 0 0 0 0 0 0 0 0 0 0 0 0 0 8 361 491 652 635 687 718 726 688 618 490 100 95 402 776 843 832 825 845 814 813 823 835 922 928 934 982 1095 1189 1280 1334 1392 1428 1462 1366 858 631 459 273 303 83 37 0 10 21 11 6 0 0 0 0 0 0 0 0
0 0 0 0 0 0 0 0 0 0 0 0 0 0 0 0 0 0 0 0 0 0 0 0 0 0 0 0 0 0 0 0 190 522 666 724 788 745 778 755 666 704 694 790 880 1050 1012 955 895 880 950 960 1159 1154 1207 1224 1201 1190 1150 1151 1132 1233 1306 1331 1338 1224 1012 874 703 510 541 364 80 0 19 42 16 0 0 0 0 0 0 0 0 0
0 0 0 0 0 0 0 0 0 0 0 0 0 0 0 0 0 0 0 0 0 0 0 0 0 0 0 0 0 0 0 0 290 526 667 805 870 809 786 738 692 743 789 823 787 755 741 686 588 636 699 734 778 884 1009 1090 1132 1186 1136 1127 1142 1096 1179 1246 1280 1212 1082 1016 931 722 644 603 384 100 104 43 65 0 0 0 0 0 0 0 0 0
0 1 0 0 0 3 0 0 0 0 0 0 0 0 0 0 0 0 0 0 0 0 0 0 0 0 0 0 0 0 0 0 225 492 649 771 826 678 693 668 612 611 689 722 647 688 686 730 744 772 823 855 848 837 835 825 826 873 886 902 938 971 1059 1096 1162 1168 1172 1136 1068 951 722 505 360 242 96 83 51 0 0 0 0 0 0 0 0 0
4 3 1 2 1 0 0 0 0 0 0 0 0 0 0 0 0 0 0 0 0 0 0 0 0 0 0 0 0 0 0 0 192 404 487 559 450 560 584 590 626 722 734 742 735 743 804 789 831 833 830 896 881 912 848 826 762 720 686 760 793 834 876 956 1026 1065 1084 1070 1035 898 633 478 350 144 0 13 32 0 0 0 0 0 0 0 0 0
3 8 2 2 0 0 0 0 0 0 0 0 1 0 0 0 0 0 0 0 0 0 0 0 0 0 0 0 0 0 0 0 29 292 220 427 462 494 586 660 776 830 773 717 701 719 735 768 767 742 874 916 960 874 817 832 733 745 733 695 672 638 671 759 814 880 933 940 880 758 645 618 399 143 0 0 26 19 3 0 0 0 0 0 0 0
4 10 8 8 4 0 0 0 0 0 0 0 0 0 0 0 0 0 0 0 0 0 0 0 0 0 0 0 0 0 23 22 47 231 183 243 433 557 678 738 764 632 567 569 619 596 554 598 629 722 796 793 837 800 798 765 751 710 682 672 622 655 703 702 766 810 832 822 830 818 706 691 446 285 92 0 21 32 21 32 11 0 0 0 0 0
2 4 3 1 1 1 0 0 0 0 0 0 0 0 0 0 0 0 0 0 0 0 0 0 0 0 0 0 0 0 149 218 199 198 203 98 137 194 418 556 581 583 554 499 428 390 415 529 623 665 676 690 730 765 823 816 801 783 773 724 715 694 739 820 876 939 944 932 948 955 830 834 601 307 222 0 88 55 12 11 20 18 5 0 0 0
0 0 0 0 0 0 0 1 0 0 0 0 0 1 2 2 0 0 0 0 0 0 0 0 0 0 0 0 0 0 96 292 288 250 210 114 162 96 114 93 320 462 513 431 324 285 290 350 451 505 508 612 690 756 756 788 800 822 792 772 783 733 706 708 779 910 994 1055 1057 992 901 858 712 472 331 199 121 63 36 17 4 18 10 0 0 0
0 0 0 0 0 0 0 0 0 0 0 0 0 0 0 2 2 0 2 0 0 0 0 0 0 0 0 0 0 0 167 301 367 299 268 206 210 181 67 70 81 199 367 84 29 26 38 57 98 377 466 557 604 662 751 810 854 859 852 846 820 822 792 753 744 754 724 775 841 823 743 678 652 384 156 123 91 111 48 34 27 21 0 0 0 0
0 0 0 0 0 0 0 1 0 0 0 0 0 0 0 0 0 1 0 0 0 0 0 0 0 0 0 0 0 0 0 253 338 346 309 274 243 100 172 172 143 128 123 103 95 110 103 99 82 51 193 386 427 513 600 688 730 751 800 784 807 824 822 753 742 739 730 671 619 590 573 537 506 474 415 341 264 80 104 84 64 48 10 19 1 0
0 4 3 8 3 0 0 0 2 7 0 4 9 2 0 0 0 1 0 0 0 0 0 0 0 0 0 0 0 0 0 173 286 283 283 254 104 64 70 76 73 78 75 63 57 35 3 1 0 0 0 0 0 273 373 560 545 485 456 444 475 614 672 728 722 710 719 704 660 656 620 622 626 596 513 422 313 50 42 34 36 20 9 12 11 7
0 14 0 6 1 0 0 1 0 0 0 0 0 0 0 0 3 0 0 0 0 1 0 0 0 0 0 0 0 0 0 0 72 176 147 101 33 6 4 2 0 0 0 0 0 0 0 0 0 0 0 0 0 0 0 0 0 0 0 0 0 0 0 318 513 542 591 636 657 636 628 643 660 640 585 524 533 485 348 210 114 17 20 15 17 15
1 5 4 3 2 0 0 0 0 0 0 0 0 0 0 0 0 0 0 0 0 0 0 0 0 0 0 0 0 6 11 19 28 33 52 52 47 28 9 10 48 120 84 9 6 0 0 0 0 0 0 0 0 0 0 0 0 0 0 0 0 0 0 0 0 0 75 369 502 500 518 546 551 555 549 544 528 438 316 270 240 216 232 240 160 163
0 3 5 3 0 0 0 0 0 0 3 3 0 0 0 0 0 0 0 0 0 0 0 0 0 0 0 4 6 14 18 20 18 10 5 9 21 28 35 54 76 68 46 60 65 41 15 24 14 0 0 3 10 0 0 0 0 0 0 0 0 0 0 0 0 0 0 0 0 232 364 418 433 450 478 488 515 475 402 319 304 294 275 234 155 164
2 6 10 8 4 2 0 0 2 14 8 0 0 0 0 0 0 0 0 0 0 0 0 1 0 0 0 0 0 0 0 0 0 0 0 2 4 7 10 11 19 44 63 73 87 90 79 60 49 38 31 27 24 7 0 0 0 0 0 0 0 0 0 0 0 0 0 0 0 0 0 105 194 353 369 423 452 440 382 296 271 269 292 293 296 226
7 11 18 14 8 1 0 1 0 4 0 0 0 0 0 0 0 0 0 0 0 0 0 0 0 0 0 0 0 0 0 0 0 0 0 0 0 2 0 0 0 0 0 1 3 3 3 6 17 0 14 27 24 8 5 2 5 4 0 0 0 1 2 0 0 0 0 0 0 0 0 0 0 147 358 346 301 308 372 284 254 192 280 306 301 285
3 4 5 6 1 1 2 0 0 0 0 0 0 0 0 0 0 0 0 0 0 0 0 0 0 0 0 0 0 0 0 0 0 0 0 0 0 0 0 0 1 2 4 3 1 0 0 0 10 31 23 22 16 28 24 9 2 0 0 0 0 0 5 1 0 0 1 0 0 0 0 0 0 0 143 138 182 233 114 0 0 52 99 155 197 204
0 2 1 2 2 0 2 1 0 0 0 0 0 0 0 0 0 0 0 0 0 0 0 0 0 0 0 0 0 0 0 0 0 0 0 0 0 0 0 0 0 0 0 0 0 0 0 0 0 7 14 18 13 9 9 10 7 14 19 0 0 0 0 0 0 0 0 0 0 0 0 0 0 0 0 0 14 0 0 0 0 0 0 0 0 23
0 2 8 4 2 2 2 2 4 0 0 0 0 0 0 0 0 0 0 0 0 0 0 0 0 0 0 0 0 0 0 0 0 0 0 0 0 0 0 0 0 0 0 0 0 0 0 0 0 0 0 10 23 20 5 0 0 0 0 0 0 4 2 1 0 0 0 0 0 0 0 0 0 0 0 0 0 0 0 0 0 0 0 0 0 0
2 2 0 1 0 0 0 1 5 0 0 0 0 0 0 0 0 0 0 0 0 0 0 0 0 0 0 0 0 0 0 0 0 0 0 0 0 0 1 2 4 4 3 3 3 3 2 2 1 1 0 0 0 0 0 0 0 0 0 0 0 3 10 2 0 0 0 0 0 0 0 0 0 0 0 0 0 0 0 0 0 0 0 0 0 0
0 0 1 2 1 2 2 4 1 0 0 0 0 0 0 0 0 0 0 0 0 0 0 0 0 0 0 0 0 0 0 0 0 0 0 0 1 4 5 7 9 11 12 15 13 10 9 7 6 10 8 5 2 0 0 0 0 0 0 0 1 6 3 0 3 2 4 5 10 5 5 1 0 0 0 0 0 0 0 0 0 0 0 0 0 0
0 0 0 0 0 1 1 0 0 0 0 0 0 0 0 0 0 0 0 0 0 0 0 0 0 0 0 0 0 0 0 0 0 0 0 0 0 0 0 0 0 0 0 0 0 0 0 0 0 1 5 4 1 2 0 0 0 0 0 0 0 1 10 9 2 0 3 13 10 8 8 6 2 0 0 0 0 0 0 0 0 0 0 0 0 0
0 0 0 0 0 0 0 0 0 0 0 0 0 0 0 0 0 0 0 0 0 0 0 0 0 0 0 0 0 0 0 0 0 0 0 0 0 0 0 0 0 0 0 0 0 0 0 0 0 0 0 0 2 2 4 2 0 0 0 0 0 0 0 0 1 3 1 0 0 0 2 5 3 1 0 0 0 0 0 0 0 0 0 0 0 0
0 0 0 0 0 0 0 0 0 0 0 0 0 0 0 0 0 0 0 0 0 0 1 1 1 2 2 1 0 0 0 0 0 0 0 0 0 0 0 0 0 0 0 0 0 0 0 0 0 0 0 0 0 0 0 0 0 0 0 0 0 0 0 0 0 0 1 10 16 18 6 5 3 2 0 0 0 0 0 0 0 0 0 0 0 0
0 0 0 4 6 0 1 5 2 0 0 0 0 0 0 0 0 0 0 0 1 8 5 12 9 15 13 10 7 4 2 0 0 0 0 0 0 0 0 0 0 0 0 0 0 0 0 0 0 0 0 0 0 0 0 0 0 0 0 0 0 0 0 0 0 0 0 0 6 15 29 32 5 0 1 0 0 0 0 0 0 0 0 0 0 0
0 0 0 0 0 6 15 14 11 10 9 6 6 4 6 7 6 6 6 6 5 3 1 3 3 3 3 2 2 1 0 0 0 0 0 0 0 0 0 0 0 0 0 0 0 0 0 0 0 0 0 0 0 0 0 0 0 0 0 0 0 0 0 0 0 0 0 0 0 5 12 19 33 27 9 0 0 1 0 0 0 0 0 0 0 0
0 0 0 0 2 0 2 5 6 9 9 5 3 0 0 0 0 0 0 0 0 0 0 0 0 0 0 0 0 0 0 0 0 0 0 0 0 0 0 0 0 0 0 0 0 0 0 0 0 0 0 0 0 0 0 0 0 0 0 0 0 0 0 0 0 0 0 10 9 9 11 14 22 12 22 10 12 0 0 0 0 0 0 0 0 0
0 0 0 0 0 0 0 0 0 0 1 0 0 0 0 0 0 0 0 0 0 0 0 0 0 0 0 0 0 0 0 0 0 0 0 0 0 0 0 0 0 0 0 0 0 0 0 0 0 0 0 0 0 0 0 0 0 0 0 0 0 0 0 0 0 0 0 0 4 19 21 28 26 23 15 8 4 0 6 0 0 0 2 2 2 0
0 0 0 0 0 0 0 0 0 0 0 0 0 0 0 0 0 0 0 0 0 0 0 0 0 0 0 0 0 0 0 0 0 0 0 0 0 0 0 0 0 0 0 0 0 0 0 0 0 0 0 0 0 0 0 0 0 0 0 0 0 0 0 0 0 0 0 0 0 0 20 27 30 31 27 22 12 4 0 0 0 0 0 0 0 0
0 0 0 0 0 0 0 0 0 0 0 0 0 0 0 0 0 0 0 0 0 0 0 0 0 0 0 0 0 0 0 0 0 0 0 0 0 0 0 0 0 0 0 0 0 0 0 0 0 0 0 0 0 0 0 0 0 0 0 0 0 0 0 0 0 0 0 0 0 0 0 0 21 16 9 13 13 7 3 0 0 0 0 0 0 0
0 0 0 0 0 0 0 0 0 0 0 0 0 0 0 0 0 0 0 0 0 0 0 0 0 0 0 0 0 0 0 0 0 0 0 0 0 0 0 1 0 0 0 1 2 2 1 1 0 0 1 0 1 1 1 1 1 0 0 0 0 0 0 0 0 0 0 0 0 0 0 0 0 0 10 9 5 10 7 3 1 0 0 0 8 8
Wind_Speed
nan nan nan nan nan nan nan nan nan nan nan nan nan nan nan nan nan nan nan nan nan nan nan nan nan nan nan 19 22 24 27 22 18 18 19 19 19 18 16 13 11 9 7 7 7 8 9 10 9 7 9 11 14 16 16 15 13 13 13 13 10 10 12 15 17 17 18 19 18 17 17 16 14 15 14 13 12 14 15 16 17 17 17 16 16 16
nan nan nan nan nan nan nan nan nan nan nan nan nan nan nan nan nan nan nan nan nan nan nan nan nan nan nan 19 22 24 23 15 12 14 15 14 16 17 15 11 9 9 9 8 6 7 8 10 11 11 9 11 14 14 17 17 15 15 15 14 13 13 13 15 16 16 17 16 17 19 18 17 16 15 14 12 10 11 13 14 15 16 17 16 16 18
nan nan nan nan nan nan nan nan nan nan nan nan nan nan nan nan nan nan nan nan nan nan nan nan nan nan nan 19 18 17 14 11 8 9 11 14 15 15 12 9 9 10 9 8 8 9 9 11 12 12 12 11 12 15 16 18 19 17 17 15 15 15 16 17 17 17 17 17 19 20 20 21 17 14 13 14 11 11 13 12 14 17 17 18 17 19
nan nan nan nan nan nan nan nan nan nan nan nan nan nan nan nan nan nan nan nan nan nan nan nan nan nan nan 19 17 16 17 19 16 15 15 15 12 10 8 8 8 9 11 11 11 11 11 11 11 11 12 12 13 15 17 19 20 18 17 16 16 16 16 18 17 17 17 21 23 24 24 21 19 17 16 16 14 12 nan nan nan nan 16 19 20 20
nan nan nan nan nan nan nan nan nan nan nan nan nan nan nan nan nan nan nan nan nan nan nan nan nan nan nan 19 16 14 18 19 17 15 15 14 13 12 11 7 6 9 11 11 10 11 12 11 12 12 10 11 12 13 15 16 17 16 16 15 17 18 17 17 18 18 20 23 24 24 23 22 22 18 16 17 15 nan nan nan nan nan nan nan 21 22
nan nan nan nan nan nan nan nan nan nan nan nan nan nan nan nan nan nan nan nan nan nan nan nan nan nan nan nan 16 21 22 16 17 13 10 11 11 11 8 8 8 10 12 13 11 10 9 8 11 12 10 10 11 11 11 13 13 14 14 16 16 17 16 16 16 18 20 22 24 23 24 22 22 20 nan nan nan nan nan nan nan nan nan nan 21 22
nan nan nan nan nan nan nan nan nan nan nan nan nan nan nan nan nan nan nan nan nan nan nan nan nan nan nan nan nan 25 22 18 19 14 10 9 8 9 9 11 12 14 14 14 13 12 11 10 14 14 11 8 10 9 11 11 11 12 13 14 16 16 15 14 16 17 20 21 20 21 21 21 22 nan nan nan nan nan nan nan nan nan nan nan nan nan
nan nan nan nan nan nan nan nan nan nan nan nan nan nan nan nan nan nan nan nan nan nan nan nan nan nan nan nan nan nan nan 20 16 12 9 6 8 9 12 13 14 16 18 19 16 14 12 13 16 17 14 11 9 11 12 12 11 12 13 14 14 14 14 12 14 16 nan 21 19 20 20 19 nan nan nan nan nan nan nan nan nan nan nan nan nan nan
nan nan nan nan nan nan nan nan nan nan nan nan nan nan nan nan nan nan nan nan nan nan nan nan nan nan nan nan nan nan nan nan nan 7 8 7 9 11 14 15 17 18 20 21 20 18 17 18 16 15 16 14 11 10 11 10 9 10 11 12 11 11 11 10 nan nan nan nan 19 21 22 21 nan nan nan nan nan nan nan nan nan nan nan nan nan nan
nan nan nan nan nan nan nan nan nan nan nan nan nan nan nan nan nan nan nan nan nan nan nan nan nan nan nan nan nan nan nan nan nan nan nan 11 11 15 18 19 19 21 21 22 21 20 20 19 16 14 18 16 12 10 9 10 11 10 12 11 11 10 10 11 nan nan nan nan nan nan nan nan nan nan nan nan nan nan nan nan nan nan nan nan nan nan
nan nan nan nan nan nan nan nan nan nan nan nan nan nan nan nan nan nan nan nan nan nan nan nan nan nan nan nan nan nan nan nan nan nan nan nan 17 18 21 23 24 24 25 25 25 24 24 22 19 17 17 16 16 14 12 11 11 12 13 13 13 11 12 nan nan nan nan nan nan nan nan nan nan nan nan nan nan nan nan nan nan nan nan nan nan nan
nan nan nan nan nan nan nan nan nan nan nan nan nan nan nan nan nan nan nan nan nan nan nan nan nan nan nan nan nan nan nan nan nan nan nan nan nan 22 24 24 26 28 28 29 30 29 30 28 23 20 20 19 17 17 14 13 14 14 14 15 15 14 14 nan nan nan nan nan nan nan nan nan nan nan nan nan nan nan nan nan nan nan nan nan nan nan
nan nan nan nan nan nan nan nan nan nan nan nan nan nan nan nan nan nan nan nan nan nan nan nan nan nan nan nan nan nan nan nan nan nan nan nan nan nan 22 25 27 30 31 31 31 31 32 32 29 25 24 22 19 16 16 15 14 14 14 14 16 14 15 nan nan nan nan nan nan 23 25 nan nan nan nan nan nan nan nan nan nan nan nan nan nan nan
nan nan nan nan nan nan nan nan nan nan nan nan nan nan nan nan nan nan nan nan nan nan nan nan nan nan nan nan nan nan nan nan nan nan nan nan nan nan nan 24 26 29 31 31 32 34 37 38 36 32 26 20 19 19 18 18 15 13 12 13 14 14 18 19 19 20 20 nan nan nan nan nan nan nan nan nan nan nan nan nan nan nan nan nan nan nan
nan nan nan nan nan nan nan nan nan nan nan nan nan nan nan nan nan nan nan nan nan nan nan nan nan nan nan nan nan nan nan nan nan nan nan nan nan nan nan 30 31 30 33 36 40 42 43 42 39 33 24 20 21 21 20 19 15 13 13 13 13 17 20 19 17 18 22 25 26 29 nan nan 20 nan nan nan nan nan nan nan nan nan nan nan nan nan
nan nan nan nan nan nan nan nan nan nan nan nan nan nan nan nan nan nan nan nan nan nan nan nan nan nan nan nan nan nan nan nan nan nan nan nan nan nan 33 34 35 36 38 40 42 45 44 41 37 28 16 17 19 19 20 18 15 14 14 14 18 22 20 18 17 20 25 27 nan 29 30 nan nan nan nan nan nan nan nan nan nan nan nan nan nan nan
nan nan nan nan nan nan nan nan nan nan nan nan nan nan nan nan nan nan nan nan nan nan nan nan nan nan nan nan nan nan nan 38 39 39 39 39 38 36 33 32 34 36 37 38 40 41 42 41 nan 18 11 13 17 17 16 16 16 17 17 19 23 21 19 17 18 22 27 30 nan 28 nan nan nan nan nan nan nan nan nan nan nan nan nan nan nan nan
nan nan nan nan nan nan nan nan nan nan nan nan nan nan nan nan nan nan nan nan nan nan nan nan nan nan nan nan nan nan nan 37 39 38 37 36 34 36 32 31 32 33 33 34 37 38 32 nan nan nan 14 17 17 16 17 17 19 20 20 22 23 21 20 20 27 34 nan 35 32 nan nan nan nan nan nan nan nan nan nan nan nan nan nan nan nan nan
nan nan nan nan nan nan nan nan nan nan nan nan nan nan nan nan nan nan nan nan nan nan nan nan nan nan nan nan nan nan nan 33 35 35 35 33 31 29 29 31 33 36 39 38 38 nan 30 29 29 27 22 21 20 18 19 21 22 23 23 22 23 23 25 28 29 30 30 30 27 nan nan nan nan nan nan nan nan nan nan nan nan nan nan nan nan nan
nan nan nan nan nan nan nan nan nan nan nan nan nan nan nan nan nan nan nan nan nan nan nan nan nan nan nan nan nan nan nan nan 28 31 29 26 25 25 25 27 29 34 nan nan 31 33 34 33 33 32 29 25 21 19 21 22 22 23 22 23 24 24 26 29 28 25 26 25 26 22 21 nan nan nan nan nan nan nan nan nan nan nan nan nan nan nan
nan nan nan nan nan nan nan nan nan nan nan nan nan nan nan nan nan nan nan nan nan nan nan nan nan nan nan nan nan nan nan nan 20 23 24 23 24 24 23 25 29 32 34 34 35 35 34 32 32 32 27 24 23 22 23 21 20 21 22 23 24 25 25 27 27 27 24 22 20 20 19 20 nan nan nan nan nan nan nan nan nan nan nan nan nan nan
nan nan nan nan nan nan nan nan nan nan nan nan nan nan nan nan nan nan nan nan nan nan nan nan nan nan nan nan nan nan nan nan 14 18 20 22 23 24 21 23 26 30 33 35 31 27 26 26 25 24 25 24 25 23 23 20 21 21 22 22 23 23 23 27 28 29 27 22 18 17 17 16 15 nan 12 nan nan nan nan nan nan nan nan nan nan nan
nan nan nan nan nan nan nan nan nan nan nan nan nan nan nan nan nan nan nan nan nan nan nan nan nan nan nan nan nan nan nan nan 15 17 20 20 22 23 24 25 27 26 24 26 25 22 20 19 19 21 24 26 25 22 20 19 19 20 21 22 23 23 23 26 29 29 26 21 17 15 15 14 12 13 nan nan nan nan nan nan nan nan nan nan nan nan
nan nan nan nan nan nan nan nan nan nan nan nan nan nan nan nan nan nan nan nan nan nan nan nan nan nan nan nan nan nan nan nan 22 21 21 21 21 22 25 26 26 25 23 23 21 20 18 16 16 20 23 24 25 24 22 19 19 21 23 25 26 26 26 26 27 28 25 20 15 16 16 14 12 13 nan nan nan nan nan nan nan nan nan nan nan nan
nan nan nan nan nan nan nan nan nan nan nan nan nan nan nan nan nan nan nan nan nan nan nan nan nan nan nan nan nan nan nan nan nan 24 24 24 21 23 25 25 25 22 22 22 21 18 17 18 20 21 21 20 20 20 19 19 20 23 26 27 28 28 28 27 26 25 24 21 19 19 18 15 15 15 nan nan nan nan nan nan nan nan nan nan nan nan
nan nan nan nan nan nan nan nan nan nan nan nan nan nan nan nan nan nan nan nan nan nan nan nan nan nan nan nan nan nan nan nan nan 24 25 24 23 24 23 24 24 23 23 23 24 25 25 24 24 25 25 24 22 19 18 19 20 22 24 25 27 29 28 27 25 23 22 21 22 21 20 19 19 19 nan nan nan nan nan nan nan nan nan nan nan nan
nan nan nan nan nan nan nan nan nan nan nan nan nan nan nan nan nan nan nan nan nan nan nan nan nan nan nan nan nan nan 27 27 27 28 28 nan 24 24 25 25 25 25 26 27 28 28 28 29 28 25 25 24 23 22 21 21 22 24 25 26 27 27 28 28 27 24 22 23 24 25 24 24 24 23 21 nan nan nan nan nan nan nan nan nan nan nan
nan nan nan nan nan nan nan nan nan nan nan nan nan nan nan nan nan nan nan nan nan nan nan nan nan nan nan nan nan nan nan 28 29 29 29 29 28 nan 27 nan 32 33 32 32 32 31 29 27 27 26 25 26 25 25 26 27 26 26 27 29 30 29 29 29 30 30 28 29 29 29 29 30 29 25 22 21 22 nan nan nan nan nan nan nan nan nan
nan nan nan nan nan nan nan nan nan nan nan nan nan nan nan nan nan nan nan nan nan nan nan nan nan nan nan nan nan nan 28 30 31 32 31 30 33 35 nan nan nan 35 34 nan nan nan nan nan nan 31 31 30 31 31 31 32 32 33 32 33 34 33 32 32 34 34 34 35 37 36 36 34 31 29 30 29 nan 27 nan nan nan nan nan nan nan nan
nan nan nan nan nan nan nan nan nan nan nan nan nan nan nan nan nan nan nan nan nan nan nan nan nan nan nan nan nan nan nan 35 35 34 39 42 40 nan 42 41 39 38 38 38 nan 36 36 nan nan nan 37 38 37 37 36 36 36 36 35 34 35 37 34 36 36 37 38 39 40 41 40 38 34 32 33 33 31 nan 28 nan nan nan nan nan nan nan
nan nan nan nan nan nan nan nan nan nan nan nan nan nan nan nan nan nan nan nan nan nan nan nan nan nan nan nan nan nan nan 37 44 46 43 41 42 nan nan nan nan nan nan nan nan nan nan nan nan nan nan nan nan 41 41 40 39 38 39 38 38 38 37 38 39 39 41 42 43 45 44 41 37 35 33 33 32 nan nan nan nan nan nan nan nan nan
nan nan nan nan nan nan nan nan nan nan nan nan nan nan nan nan nan nan nan nan nan nan nan nan nan nan nan nan nan nan nan nan nan 44 44 43 nan nan nan nan nan nan nan nan nan nan nan nan nan nan nan nan nan nan nan nan nan nan nan nan nan nan nan 41 42 42 42 43 45 45 45 42 40 37 35 35 33 33 36 36 35 nan nan nan nan nan
nan nan nan nan nan nan nan nan nan nan nan nan nan nan nan nan nan nan nan nan nan nan nan nan nan nan nan nan nan nan nan nan nan nan nan nan nan nan nan nan nan 46 nan nan nan nan nan nan nan nan nan nan nan nan nan nan nan nan nan nan nan nan nan nan nan nan nan 43 43 43 43 42 41 39 38 37 36 36 38 39 39 37 36 36 34 35
nan nan nan nan nan nan nan nan nan nan nan nan nan nan nan nan nan nan nan nan nan nan nan nan nan nan nan nan nan nan nan nan nan nan nan nan nan nan nan nan nan nan nan nan nan nan nan nan nan nan nan nan nan nan nan nan nan nan nan nan nan nan nan nan nan nan nan nan nan 43 43 43 42 40 39 40 40 39 39 38 37 37 36 37 37 36
nan nan nan nan nan nan nan nan nan nan nan nan nan nan nan nan nan nan nan nan nan nan nan nan nan nan nan nan nan nan nan nan nan nan nan nan nan nan nan nan nan nan nan nan nan nan nan nan nan nan nan nan nan nan nan nan nan nan nan nan nan nan nan nan nan nan nan nan nan nan nan 45 44 43 41 42 41 40 38 37 38 39 38 37 37 37
nan nan nan nan nan nan nan nan nan nan nan nan nan nan nan nan nan nan nan nan nan nan nan nan nan nan nan nan nan nan nan nan nan nan nan nan nan nan nan nan nan nan nan nan nan nan nan nan nan nan nan nan nan nan nan nan nan nan nan nan nan nan nan nan nan nan nan nan nan nan nan nan nan 45 45 45 44 43 42 40 39 40 40 41 41 41
nan nan nan nan nan nan nan nan nan nan nan nan nan nan nan nan nan nan nan nan nan nan nan nan nan nan nan nan nan nan nan nan nan nan nan nan nan nan nan nan nan nan nan nan nan nan nan nan nan nan nan nan nan nan nan nan nan nan nan nan nan nan nan nan nan nan nan nan nan nan nan nan nan nan 45 45 45 45 44 nan nan nan nan 47 45 45
nan nan nan nan nan nan nan nan nan nan nan nan nan nan nan nan nan nan nan nan nan nan nan nan nan nan nan nan nan nan nan nan nan nan nan nan nan nan nan nan nan nan nan nan nan nan nan nan nan nan nan nan nan nan nan nan nan nan nan nan nan nan nan nan nan nan nan nan nan nan nan nan nan nan nan nan nan nan nan nan nan nan nan nan nan nan
nan nan nan nan nan nan nan nan nan nan nan nan nan nan nan nan nan nan nan nan nan nan nan nan nan nan nan nan nan nan nan nan nan nan nan nan nan nan nan nan nan nan nan nan nan nan nan nan nan nan nan nan nan nan nan nan nan nan nan nan nan nan nan nan nan nan nan nan nan nan nan nan nan nan nan nan nan nan nan nan nan nan nan nan nan nan
nan nan nan nan nan nan nan nan nan nan nan nan nan nan nan nan nan nan nan nan nan nan nan nan nan nan nan nan nan nan nan nan nan nan nan nan nan nan nan nan nan nan nan nan nan nan nan nan nan nan nan nan nan nan nan nan nan nan nan nan nan nan nan nan nan nan nan nan nan nan nan nan nan nan nan nan nan nan nan nan nan nan nan nan nan nan
nan nan nan nan nan nan nan nan nan nan nan nan nan nan nan nan nan nan nan nan nan nan nan nan nan nan nan nan nan nan nan nan nan nan nan nan nan nan nan nan nan nan nan nan nan nan nan nan nan nan nan nan nan nan nan nan nan nan nan nan nan nan nan nan nan nan nan nan nan nan nan nan nan nan nan nan nan nan nan nan nan nan nan nan nan nan
nan nan nan nan nan nan nan nan nan nan nan nan nan nan nan nan nan nan nan nan nan nan nan nan nan nan nan nan nan nan nan nan nan nan nan nan nan nan nan nan nan nan nan nan nan nan nan nan nan nan nan nan nan nan nan nan nan nan nan nan nan nan nan nan nan nan nan nan nan nan nan nan nan nan nan nan nan nan nan nan nan nan nan nan nan nan
nan nan nan nan nan nan nan nan nan nan nan nan nan nan nan nan nan nan nan nan nan nan nan nan nan nan nan nan nan nan nan nan nan nan nan nan nan nan nan nan nan nan nan nan nan nan nan nan nan nan nan nan nan nan nan nan nan nan nan nan nan nan nan nan nan nan nan nan nan nan nan nan nan nan nan nan nan nan nan nan nan nan nan nan nan nan
nan nan nan nan nan nan nan nan nan nan nan nan nan nan nan nan nan nan nan nan nan nan nan nan nan nan nan nan nan nan nan nan nan nan nan nan nan nan nan nan nan nan nan nan nan nan nan nan nan nan nan nan nan nan nan nan nan nan nan nan nan nan nan nan nan nan nan nan nan nan nan nan nan nan nan nan nan nan nan nan nan nan nan nan nan nan
nan nan nan nan nan nan nan nan nan nan nan nan nan nan nan nan nan nan nan nan nan nan nan nan nan nan nan nan nan nan nan nan nan nan nan nan nan nan nan nan nan nan nan nan nan nan nan nan nan nan nan nan nan nan nan nan nan nan nan nan nan nan nan nan nan nan nan nan nan nan nan nan nan nan nan nan nan nan nan nan nan nan nan nan nan nan
nan nan nan nan nan nan nan nan nan nan nan nan nan nan nan nan nan nan nan nan nan nan nan nan nan nan nan nan nan nan nan nan nan nan nan nan nan nan nan nan nan nan nan nan nan nan nan nan nan nan nan nan nan nan nan nan nan nan nan nan nan nan nan nan nan nan nan nan nan nan nan nan nan nan nan nan nan nan nan nan nan nan nan nan nan nan
nan nan nan nan nan nan nan nan nan nan nan nan nan nan nan nan nan nan nan nan nan nan nan nan nan nan nan nan nan nan nan nan nan nan nan nan nan nan nan nan nan nan nan nan nan nan nan nan nan nan nan nan nan nan nan nan nan nan nan nan nan nan nan nan nan nan nan nan nan nan nan nan nan nan nan nan nan nan nan nan nan nan nan nan nan nan
nan nan nan nan nan nan nan nan nan nan nan nan nan nan nan nan nan nan nan nan nan nan nan nan nan nan nan nan nan nan nan nan nan nan nan nan nan nan nan nan nan nan nan nan nan nan nan nan nan nan nan nan nan nan nan nan nan nan nan nan nan nan nan nan nan nan nan nan nan nan nan nan nan nan nan nan nan nan nan nan nan nan nan nan nan nan
nan nan nan nan nan nan nan nan nan nan nan nan nan nan nan nan nan nan nan nan nan nan nan nan nan nan nan nan nan nan nan nan nan nan nan nan nan nan nan nan nan nan nan nan nan nan nan nan nan nan nan nan nan nan nan nan nan nan nan nan nan nan nan nan nan nan nan nan nan nan nan nan nan nan nan nan nan nan nan nan nan nan nan nan nan nan
nan nan nan nan nan nan nan nan nan nan nan nan nan nan nan nan nan nan nan nan nan nan nan nan nan nan nan nan nan nan nan nan nan nan nan nan nan nan nan nan nan nan nan nan nan nan nan nan nan nan nan nan nan nan nan nan nan nan nan nan nan nan nan nan nan nan nan nan nan nan nan nan nan nan nan nan nan nan nan nan nan nan nan nan nan nan
nan nan nan nan nan nan nan nan nan nan nan nan nan nan nan nan nan nan nan nan nan nan nan nan nan nan nan nan nan nan nan nan nan nan nan nan nan nan nan nan nan nan nan nan nan nan nan nan nan nan nan nan nan nan nan nan nan nan nan nan nan nan nan nan nan nan nan nan nan nan nan nan nan nan nan nan nan nan nan nan nan nan nan nan nan nan
Wind_Direction
nan nan nan nan nan nan nan nan nan nan nan nan nan nan nan nan nan nan nan nan nan nan nan nan nan nan nan 251 261 263 258 258 263 265 261 256 253 249 247 256 273 306 329 293 309 319 321 315 306 281 264 274 275 278 279 279 278 285 296 294 299 292 293 290 285 283 286 282 279 276 281 285 283 285 281 282 284 293 294 294 291 290 288 284 282 280
nan nan nan nan nan nan nan nan nan nan nan nan nan nan nan nan nan nan nan nan nan nan nan nan nan nan nan 232 252 258 263 275 281 266 264 263 260 247 247 256 290 307 280 288 312 323 316 314 312 294 275 267 277 274 277 283 287 288 292 304 298 293 295 291 290 289 286 285 288 288 289 283 281 281 282 280 280 288 288 287 286 286 285 283 283 279
nan nan nan nan nan nan nan nan nan nan nan nan nan nan nan nan nan nan nan nan nan nan nan nan nan nan nan 224 241 272 286 257 249 243 243 251 255 246 248 261 283 297 317 313 332 333 339 330 316 301 288 275 271 275 275 275 277 280 291 293 293 294 291 286 286 288 288 282 281 281 287 288 281 280 283 280 277 279 282 277 280 282 284 287 281 277
nan nan nan nan nan nan nan nan nan nan nan nan nan nan nan nan nan nan nan nan nan nan nan nan nan nan nan 219 220 223 231 218 218 223 237 245 250 265 267 270 297 326 316 332 334 343 346 338 325 309 297 290 271 271 269 274 282 283 288 285 286 285 279 283 285 286 282 283 283 280 285 283 288 294 289 279 270 265 nan nan nan nan 283 289 285 280
nan nan nan nan nan nan nan nan nan nan nan nan nan nan nan nan nan nan nan nan nan nan nan nan nan nan nan 219 212 211 214 214 215 233 236 245 250 248 248 265 315 322 314 321 326 340 344 345 342 328 301 278 283 285 289 288 290 286 289 287 285 282 281 282 285 289 290 286 282 285 286 288 286 281 273 269 261 nan nan nan nan nan nan nan 288 282
nan nan nan nan nan nan nan nan nan nan nan nan nan nan nan nan nan nan nan nan nan nan nan nan nan nan nan nan 207 213 221 212 214 234 238 249 259 265 284 305 296 298 304 318 322 332 334 332 323 311 294 284 284 296 296 291 290 283 281 277 272 270 272 279 284 292 290 290 293 292 292 292 289 288 nan nan nan nan nan nan nan nan nan nan 286 282
nan nan nan nan nan nan nan nan nan nan nan nan nan nan nan nan nan nan nan nan nan nan nan nan nan nan nan nan nan 221 223 225 225 226 231 249 269 279 286 293 305 305 304 299 301 310 320 330 321 312 304 293 288 287 278 277 281 280 280 278 276 278 274 273 279 283 283 286 293 299 302 304 307 nan nan nan nan nan nan nan nan nan nan nan nan nan
nan nan nan nan nan nan nan nan nan nan nan nan nan nan nan nan nan nan nan nan nan nan nan nan nan nan nan nan nan nan nan 232 228 233 241 263 283 293 284 288 294 300 299 300 304 309 312 323 329 320 301 294 290 281 278 279 274 281 280 277 278 275 279 279 281 284 nan 295 296 292 292 299 nan nan nan nan nan nan nan nan nan nan nan nan nan nan
nan nan nan nan nan nan nan nan nan nan nan nan nan nan nan nan nan nan nan nan nan nan nan nan nan nan nan nan nan nan nan nan nan 254 269 280 284 287 289 286 288 293 296 298 303 308 314 325 327 300 292 283 278 281 289 290 287 278 275 277 273 282 285 291 nan nan nan nan 297 295 291 285 nan nan nan nan nan nan nan nan nan nan nan nan nan nan
nan nan nan nan nan nan nan nan nan nan nan nan nan nan nan nan nan nan nan nan nan nan nan nan nan nan nan nan nan nan nan nan nan nan nan 281 288 287 289 284 283 284 286 288 294 297 299 305 308 287 274 282 283 262 245 250 260 267 268 273 277 280 284 287 nan nan nan nan nan nan nan nan nan nan nan nan nan nan nan nan nan nan nan nan nan nan
nan nan nan nan nan nan nan nan nan nan nan nan nan nan nan nan nan nan nan nan nan nan nan nan nan nan nan nan nan nan nan nan nan nan nan nan 274 282 287 291 288 286 285 288 290 292 293 292 294 284 286 284 270 257 250 249 252 256 261 266 270 275 277 nan nan nan nan nan nan nan nan nan nan nan nan nan nan nan nan nan nan nan nan nan nan nan
nan nan nan nan nan nan nan nan nan nan nan nan nan nan nan nan nan nan nan nan nan nan nan nan nan nan nan nan nan nan nan nan nan nan nan nan nan 293 288 285 283 280 279 283 287 287 287 285 285 277 272 272 268 257 250 243 247 255 261 271 279 276 279 nan nan nan nan nan nan nan nan nan nan nan nan nan nan nan nan nan nan nan nan nan nan nan
nan nan nan nan nan nan nan nan nan nan nan nan nan nan nan nan nan nan nan nan nan nan nan nan nan nan nan nan nan nan nan nan nan nan nan nan nan nan 281 285 281 279 278 283 284 283 282 284 282 275 265 263 263 262 256 255 255 260 268 279 287 284 277 nan nan nan nan nan nan 278 275 nan nan nan nan nan nan nan nan nan nan nan nan nan nan nan
nan nan nan nan nan nan nan nan nan nan nan nan nan nan nan nan nan nan nan nan nan nan nan nan nan nan nan nan nan nan nan nan nan nan nan nan nan nan nan 283 281 279 279 278 273 269 266 263 261 258 259 262 263 260 264 265 265 266 274 281 290 284 267 262 265 272 278 nan nan nan nan nan nan nan nan nan nan nan nan nan nan nan nan nan nan nan
nan nan nan nan nan nan nan nan nan nan nan nan nan nan nan nan nan nan nan nan nan nan nan nan nan nan nan nan nan nan nan nan nan nan nan nan nan nan nan 272 270 266 261 261 260 261 262 262 264 256 248 254 255 253 259 266 271 276 285 287 284 271 262 267 275 277 271 269 276 274 nan nan 249 nan nan nan nan nan nan nan nan nan nan nan nan nan
nan nan nan nan nan nan nan nan nan nan nan nan nan nan nan nan nan nan nan nan nan nan nan nan nan nan nan nan nan nan nan nan nan nan nan nan nan nan 261 265 266 263 265 266 268 267 267 272 270 257 235 244 251 254 261 269 276 288 291 278 261 260 266 273 277 281 290 295 nan 286 277 nan nan nan nan nan nan nan nan nan nan nan nan nan nan nan
nan nan nan nan nan nan nan nan nan nan nan nan nan nan nan nan nan nan nan nan nan nan nan nan nan nan nan nan nan nan nan 248 250 252 258 262 262 257 254 254 257 261 264 263 266 267 271 269 nan 228 220 255 253 261 276 279 284 288 279 268 267 273 274 286 292 278 269 269 nan 277 nan nan nan nan nan nan nan nan nan nan nan nan nan nan nan nan
nan nan nan nan nan nan nan nan nan nan nan nan nan nan nan nan nan nan nan nan nan nan nan nan nan nan nan nan nan nan nan 256 256 257 262 262 261 259 252 248 245 244 246 251 257 258 262 nan nan nan 245 250 255 262 266 271 275 273 269 272 278 279 278 268 264 262 nan 276 288 nan nan nan nan nan nan nan nan nan nan nan nan nan nan nan nan nan
nan nan nan nan nan nan nan nan nan nan nan nan nan nan nan nan nan nan nan nan nan nan nan nan nan nan nan nan nan nan nan 260 260 259 258 257 255 252 252 252 250 247 243 244 250 nan 238 238 239 242 250 252 253 255 255 261 263 259 259 263 269 271 269 276 286 300 301 298 298 nan nan nan nan nan nan nan nan nan nan nan nan nan nan nan nan nan
nan nan nan nan nan nan nan nan nan nan nan nan nan nan nan nan nan nan nan nan nan nan nan nan nan nan nan nan nan nan nan nan 260 257 254 252 251 249 244 248 251 259 nan nan 248 247 245 246 247 250 253 251 250 251 252 257 257 258 262 265 268 273 281 291 304 305 298 298 302 308 302 nan nan nan nan nan nan nan nan nan nan nan nan nan nan nan
nan nan nan nan nan nan nan nan nan nan nan nan nan nan nan nan nan nan nan nan nan nan nan nan nan nan nan nan nan nan nan nan 262 260 248 245 242 240 241 249 250 253 256 247 243 250 254 255 254 254 256 256 250 247 246 247 253 259 264 270 277 284 289 297 295 290 294 298 305 307 313 323 nan nan nan nan nan nan nan nan nan nan nan nan nan nan
nan nan nan nan nan nan nan nan nan nan nan nan nan nan nan nan nan nan nan nan nan nan nan nan nan nan nan nan nan nan nan nan 251 253 249 243 241 241 238 240 246 252 251 249 248 251 252 250 252 251 250 248 245 239 240 242 252 260 265 273 279 282 288 293 297 300 300 300 304 315 319 320 316 nan 302 nan nan nan nan nan nan nan nan nan nan nan
nan nan nan nan nan nan nan nan nan nan nan nan nan nan nan nan nan nan nan nan nan nan nan nan nan nan nan nan nan nan nan nan 252 255 251 243 243 242 239 237 237 242 244 241 246 257 260 253 250 255 255 253 251 248 247 244 256 266 272 276 280 284 288 292 296 295 295 298 305 315 312 311 308 307 nan nan nan nan nan nan nan nan nan nan nan nan
nan nan nan nan nan nan nan nan nan nan nan nan nan nan nan nan nan nan nan nan nan nan nan nan nan nan nan nan nan nan nan nan 249 243 247 240 239 241 244 242 242 244 245 249 252 262 264 262 258 255 254 250 244 241 238 242 255 265 271 274 275 281 286 287 288 289 288 289 299 299 299 303 295 293 nan nan nan nan nan nan nan nan nan nan nan nan
nan nan nan nan nan nan nan nan nan nan nan nan nan nan nan nan nan nan nan nan nan nan nan nan nan nan nan nan nan nan nan nan nan 242 246 244 237 240 243 244 246 248 251 251 253 253 256 251 247 251 254 254 251 246 245 250 262 269 272 272 274 275 280 285 283 283 283 282 288 297 302 298 293 290 nan nan nan nan nan nan nan nan nan nan nan nan
nan nan nan nan nan nan nan nan nan nan nan nan nan nan nan nan nan nan nan nan nan nan nan nan nan nan nan nan nan nan nan nan nan 243 246 250 249 245 242 242 243 245 245 245 241 239 238 242 245 245 246 246 246 253 256 259 264 272 274 275 277 279 278 280 278 279 281 281 286 296 304 302 297 293 nan nan nan nan nan nan nan nan nan nan nan nan
nan nan nan nan nan nan nan nan nan nan nan nan nan nan nan nan nan nan nan nan nan nan nan nan nan nan nan nan nan nan 238 241 240 239 241 nan 240 246 250 250 253 253 251 247 247 246 248 248 246 248 250 253 257 257 257 258 264 271 275 276 278 282 282 278 275 275 280 284 291 298 303 301 301 299 295 nan nan nan nan nan nan nan nan nan nan nan
nan nan nan nan nan nan nan nan nan nan nan nan nan nan nan nan nan nan nan nan nan nan nan nan nan nan nan nan nan nan nan 245 246 244 242 242 245 nan 254 nan 249 246 244 245 244 245 249 251 251 251 253 253 253 253 253 257 257 261 268 272 273 276 278 276 271 270 273 281 287 290 291 292 295 296 294 290 289 nan nan nan nan nan nan nan nan nan
nan nan nan nan nan nan nan nan nan nan nan nan nan nan nan nan nan nan nan nan nan nan nan nan nan nan nan nan nan nan 249 252 250 246 247 252 252 251 nan nan nan 247 246 nan nan nan nan nan nan 253 255 255 253 252 254 255 257 260 261 266 269 270 271 271 270 269 271 277 284 289 291 291 289 289 289 291 nan 294 nan nan nan nan nan nan nan nan
nan nan nan nan nan nan nan nan nan nan nan nan nan nan nan nan nan nan nan nan nan nan nan nan nan nan nan nan nan nan nan 256 256 254 250 247 249 nan 253 252 251 250 250 250 nan 252 254 nan nan nan 257 254 254 254 254 256 258 262 264 265 268 271 270 271 270 270 270 275 280 284 286 288 287 286 285 288 291 nan 292 nan nan nan nan nan nan nan
nan nan nan nan nan nan nan nan nan nan nan nan nan nan nan nan nan nan nan nan nan nan nan nan nan nan nan nan nan nan nan 260 256 251 253 254 253 nan nan nan nan nan nan nan nan nan nan nan nan nan nan nan nan 257 258 260 261 263 266 268 269 270 270 271 271 269 271 273 276 279 281 284 284 282 282 280 279 nan nan nan nan nan nan nan nan nan
nan nan nan nan nan nan nan nan nan nan nan nan nan nan nan nan nan nan nan nan nan nan nan nan nan nan nan nan nan nan nan nan nan 258 257 256 nan nan nan nan nan nan nan nan nan nan nan nan nan nan nan nan nan nan nan nan nan nan nan nan nan nan nan 271 272 272 272 272 274 276 277 278 278 277 276 275 276 275 272 270 269 nan nan nan nan nan
nan nan nan nan nan nan nan nan nan nan nan nan nan nan nan nan nan nan nan nan nan nan nan nan nan nan nan nan nan nan nan nan nan nan nan nan nan nan nan nan nan 261 nan nan nan nan nan nan nan nan nan nan nan nan nan nan nan nan nan nan nan nan nan nan nan nan nan 271 272 273 273 273 273 273 273 274 273 272 270 270 270 268 267 269 268 268
nan nan nan nan nan nan nan nan nan nan nan nan nan nan nan nan nan nan nan nan nan nan nan nan nan nan nan nan nan nan nan nan nan nan nan nan nan nan nan nan nan nan nan nan nan nan nan nan nan nan nan nan nan nan nan nan nan nan nan nan nan nan nan nan nan nan nan nan nan 271 271 271 269 267 267 268 268 269 270 269 270 269 271 269 268 269
nan nan nan nan nan nan nan nan nan nan nan nan nan nan nan nan nan nan nan nan nan nan nan nan nan nan nan nan nan nan nan nan nan nan nan nan nan nan nan nan nan nan nan nan nan nan nan nan nan nan nan nan nan nan nan nan nan nan nan nan nan nan nan nan nan nan nan nan nan nan nan 268 269 270 269 268 268 267 266 265 264 267 269 270 270 270
nan nan nan nan nan nan nan nan nan nan nan nan nan nan nan nan nan nan nan nan nan nan nan nan nan nan nan nan nan nan nan nan nan nan nan nan nan nan nan nan nan nan nan nan nan nan nan nan nan nan nan nan nan nan nan nan nan nan nan nan nan nan nan nan nan nan nan nan nan nan nan nan nan 269 269 269 269 268 266 263 265 267 265 265 264 262
nan nan nan nan nan nan nan nan nan nan nan nan nan nan nan nan nan nan nan nan nan nan nan nan nan nan nan nan nan nan nan nan nan nan nan nan nan nan nan nan nan nan nan nan nan nan nan nan nan nan nan nan nan nan nan nan nan nan nan nan nan nan nan nan nan nan nan nan nan nan nan nan nan nan 269 270 270 270 267 nan nan nan nan 264 264 267
nan nan nan nan nan nan nan nan nan nan nan nan nan nan nan nan nan nan nan nan nan nan nan nan nan nan nan nan nan nan nan nan nan nan nan nan nan nan nan nan nan nan nan nan nan nan nan nan nan nan nan nan nan nan nan nan nan nan nan nan nan nan nan nan nan nan nan nan nan nan nan nan nan nan nan nan nan nan nan nan nan nan nan nan nan nan
nan nan nan nan nan nan nan nan nan nan nan nan nan nan nan nan nan nan nan nan nan nan nan nan nan nan nan nan nan nan nan nan nan nan nan nan nan nan nan nan nan nan nan nan nan nan nan nan nan nan nan nan nan nan nan nan nan nan nan nan nan nan nan nan nan nan nan nan nan nan nan nan nan nan nan nan nan nan nan nan nan nan nan nan nan nan
nan nan nan nan nan nan nan nan nan nan nan nan nan nan nan nan nan nan nan nan nan nan nan nan nan nan nan nan nan nan nan nan nan nan nan nan nan nan nan nan nan nan nan nan nan nan nan nan nan nan nan nan nan nan nan nan nan nan nan nan nan nan nan nan nan nan nan nan nan nan nan nan nan nan nan nan nan nan nan nan nan nan nan nan nan nan
nan nan nan nan nan nan nan nan nan nan nan nan nan nan nan nan nan nan nan nan nan nan nan nan nan nan nan nan nan nan nan nan nan nan nan nan nan nan nan nan nan nan nan nan nan nan nan nan nan nan nan nan nan nan nan nan nan nan nan nan nan nan nan nan nan nan nan nan nan nan nan nan nan nan nan nan nan nan nan nan nan nan nan nan nan nan
nan nan nan nan nan nan nan nan nan nan nan nan nan nan nan nan nan nan nan nan nan nan nan nan nan nan nan nan nan nan nan nan nan nan nan nan nan nan nan nan nan nan nan nan nan nan nan nan nan nan nan nan nan nan nan nan nan nan nan nan nan nan nan nan nan nan nan nan nan nan nan nan nan nan nan nan nan nan nan nan nan nan nan nan nan nan
nan nan nan nan nan nan nan nan nan nan nan nan nan nan nan nan nan nan nan nan nan nan nan nan nan nan nan nan nan nan nan nan nan nan nan nan nan nan nan nan nan nan nan nan nan nan nan nan nan nan nan nan nan nan nan nan nan nan nan nan nan nan nan nan nan nan nan nan nan nan nan nan nan nan nan nan nan nan nan nan nan nan nan nan nan nan
nan nan nan nan nan nan nan nan nan nan nan nan nan nan nan nan nan nan nan nan nan nan nan nan nan nan nan nan nan nan nan nan nan nan nan nan nan nan nan nan nan nan nan nan nan nan nan nan nan nan nan nan nan nan nan nan nan nan nan nan nan nan nan nan nan nan nan nan nan nan nan nan nan nan nan nan nan nan nan nan nan nan nan nan nan nan
nan nan nan nan nan nan nan nan nan nan nan nan nan nan nan nan nan nan nan nan nan nan nan nan nan nan nan nan nan nan nan nan nan nan nan nan nan nan nan nan nan nan nan nan nan nan nan nan nan nan nan nan nan nan nan nan nan nan nan nan nan nan nan nan nan nan nan nan nan nan nan nan nan nan nan nan nan nan nan nan nan nan nan nan nan nan
nan nan nan nan nan nan nan nan nan nan nan nan nan nan nan nan nan nan nan nan nan nan nan nan nan nan nan nan nan nan nan nan nan nan nan nan nan nan nan nan nan nan nan nan nan nan nan nan nan nan nan nan nan nan nan nan nan nan nan nan nan nan nan nan nan nan nan nan nan nan nan nan nan nan nan nan nan nan nan nan nan nan nan nan nan nan
nan nan nan nan nan nan nan nan nan nan nan nan nan nan nan nan nan nan nan nan nan nan nan nan nan nan nan nan nan nan nan nan nan nan nan nan nan nan nan nan nan nan nan nan nan nan nan nan nan nan nan nan nan nan nan nan nan nan nan nan nan nan nan nan nan nan nan nan nan nan nan nan nan nan nan nan nan nan nan nan nan nan nan nan nan nan
nan nan nan nan nan nan nan nan nan nan nan nan nan nan nan nan nan nan nan nan nan nan nan nan nan nan nan nan nan nan nan nan nan nan nan nan nan nan nan nan nan nan nan nan nan nan nan nan nan nan nan nan nan nan nan nan nan nan nan nan nan nan nan nan nan nan nan nan nan nan nan nan nan nan nan nan nan nan nan nan nan nan nan nan nan nan
nan nan nan nan nan nan nan nan nan nan nan nan nan nan nan nan nan nan nan nan nan nan nan nan nan nan nan nan nan nan nan nan nan nan nan nan nan nan nan nan nan nan nan nan nan nan nan nan nan nan nan nan nan nan nan nan nan nan nan nan nan nan nan nan nan nan nan nan nan nan nan nan nan nan nan nan nan nan nan nan nan nan nan nan nan nan
nan nan nan nan nan nan nan nan nan nan nan nan nan nan nan nan nan nan nan nan nan nan nan nan nan nan nan nan nan nan nan nan nan nan nan nan nan nan nan nan nan nan nan nan nan nan nan nan nan nan nan nan nan nan nan nan nan nan nan nan nan nan nan nan nan nan nan nan nan nan nan nan nan nan nan nan nan nan nan nan nan nan nan nan nan nan
nan nan nan nan nan nan nan nan nan nan nan nan nan nan nan nan nan nan nan nan nan nan nan nan nan nan nan nan nan nan nan nan nan nan nan nan nan nan nan nan nan nan nan nan nan nan nan nan nan nan nan nan nan nan nan nan nan nan nan nan nan nan nan nan nan nan nan nan nan nan nan nan nan nan nan nan nan nan nan nan nan nan nan nan nan nan